When you browse on this site, cookies collect data to enhance your experience and personalize the content and advertising you see.
Visit our Privacy Policy to learn more. By continuing to use the site, you agree to this use of cookies and data.
  • In Czech Republic
  • List of Countries
  • For 7 days
  • Water Temperature
  • Satellite Maps
  • Weather Map
  • Weather Widgets
  • user-avatar
    Login

    Hourly Weather Mercer Island

    Today, 22 April, Monday

    Time Temperature Precipitation Wind Pressure Humidity
    00:00 +9°C° 0 mm 1 mps 767 mmHg 83%
    01:00 +8°C° 0 mm 1 mps 767 mmHg 85%
    02:00 +7°C° 0 mm 2 mps 767 mmHg 85%
    03:00 +7°C° 0 mm 2 mps 767 mmHg 85%
    04:00 +6°C° 0 mm 2 mps 767 mmHg 85%
    05:00 +7°C° 0 mm 2 mps 767 mmHg 81%
    06:00 +8°C° 0 mm 2 mps 767 mmHg 77%
    07:00 +9°C° 0 mm 2 mps 767 mmHg 73%
    08:00 +10°C° 0 mm 2 mps 766 mmHg 71%
    09:00 +10°C° 0 mm 2 mps 766 mmHg 69%
    10:00 +12°C° 0 mm 2 mps 766 mmHg 67%
    11:00 +13°C° 0 mm 3 mps 766 mmHg 62%
    12:00 +14°C° 0 mm 4 mps 766 mmHg 57%
    13:00 +17°C° 0 mm 4 mps 766 mmHg 52%
    14:00 +15°C° 0.3 mm 4 mps 766 mmHg 62%
    15:00 +13°C° 0.3 mm 4 mps 765 mmHg 72%
    16:00 +12°C° 0.3 mm 3 mps 765 mmHg 82%
    17:00 +12°C° 0.3 mm 3 mps 765 mmHg 85%
    18:00 +12°C° 0.3 mm 3 mps 765 mmHg 88%
    19:00 +11°C° 0.3 mm 3 mps 765 mmHg 90%
    20:00 +11°C° 0.1 mm 3 mps 765 mmHg 91%
    21:00 +11°C° 0.1 mm 3 mps 765 mmHg 91%
    22:00 +11°C° 0.1 mm 3 mps 765 mmHg 92%
    23:00 +11°C° 0 mm 3 mps 765 mmHg 92%

    Tomorrow, 23 April, Tuesday

    Time Temperature Precipitation Wind Pressure Humidity
    00:00 +11°C° 0 mm 3 mps 765 mmHg 93%
    01:00 +10°C° 0 mm 2 mps 764 mmHg 94%
    02:00 +10°C° 0 mm 2 mps 764 mmHg 95%
    03:00 +10°C° 0 mm 2 mps 764 mmHg 95%
    04:00 +10°C° 0 mm 2 mps 764 mmHg 96%
    05:00 +12°C° 0 mm 2 mps 764 mmHg 95%
    06:00 +12°C° 0 mm 2 mps 765 mmHg 94%
    07:00 +12°C° 0 mm 2 mps 765 mmHg 93%
    08:00 +14°C° 0.1 mm 2 mps 765 mmHg 86%
    09:00 +14°C° 0.1 mm 3 mps 765 mmHg 79%
    10:00 +16°C° 0.1 mm 3 mps 765 mmHg 72%
    11:00 +16°C° 0.1 mm 3 mps 765 mmHg 69%
    12:00 +17°C° 0.1 mm 2 mps 765 mmHg 67%
    13:00 +17°C° 0.1 mm 2 mps 765 mmHg 65%
    14:00 +17°C° 0.1 mm 2 mps 764 mmHg 66%
    15:00 +17°C° 0.1 mm 2 mps 764 mmHg 67%
    16:00 +16°C° 0.1 mm 2 mps 764 mmHg 68%
    17:00 +15°C° 0.1 mm 2 mps 764 mmHg 74%
    18:00 +14°C° 0.1 mm 2 mps 764 mmHg 79%
    19:00 +12°C° 0.1 mm 2 mps 764 mmHg 85%
    20:00 +11°C° 0 mm 1 mps 765 mmHg 86%
    21:00 +11°C° 0 mm 1 mps 765 mmHg 87%
    22:00 +10°C° 0 mm 1 mps 766 mmHg 88%
    23:00 +10°C° 0 mm 1 mps 766 mmHg 89%

    Day after tomorrow, 24 April, Wednesday

    Time Temperature Precipitation Wind Pressure Humidity
    00:00 +9°C° 0 mm 1 mps 766 mmHg 90%
    01:00 +8°C° 0 mm 0 mps 766 mmHg 91%
    02:00 +7°C° 0 mm 0 mps 766 mmHg 92%
    03:00 +7°C° 0 mm 0 mps 766 mmHg 93%
    04:00 +6°C° 0 mm 0 mps 767 mmHg 94%
    05:00 +7°C° 0 mm 0 mps 767 mmHg 91%
    06:00 +8°C° 0 mm 0 mps 767 mmHg 89%
    07:00 +8°C° 0 mm 0 mps 767 mmHg 86%
    08:00 +10°C° 0 mm 0 mps 767 mmHg 78%
    09:00 +12°C° 0 mm 1 mps 766 mmHg 69%
    10:00 +14°C° 0 mm 1 mps 766 mmHg 60%
    11:00 +15°C° 0 mm 1 mps 766 mmHg 54%
    12:00 +17°C° 0 mm 2 mps 765 mmHg 47%
    13:00 +18°C° 0 mm 2 mps 765 mmHg 41%
    14:00 +18°C° 0 mm 2 mps 764 mmHg 41%
    15:00 +18°C° 0 mm 3 mps 764 mmHg 42%
    16:00 +18°C° 0 mm 3 mps 763 mmHg 43%
    17:00 +16°C° 0 mm 3 mps 764 mmHg 50%
    18:00 +14°C° 0 mm 2 mps 764 mmHg 57%
    19:00 +12°C° 0 mm 2 mps 764 mmHg 64%
    20:00 +10°C° 0 mm 2 mps 764 mmHg 68%
    21:00 +10°C° 0 mm 1 mps 764 mmHg 71%
    22:00 +9°C° 0 mm 1 mps 765 mmHg 74%
    23:00 +8°C° 0 mm 1 mps 765 mmHg 75%

    25 April, Thursday

    Time Temperature Precipitation Wind Pressure Humidity
    00:00 +8°C° 0 mm 1 mps 764 mmHg 77%
    01:00 +7°C° 0 mm 1 mps 764 mmHg 78%
    02:00 +7°C° 0 mm 1 mps 764 mmHg 78%
    03:00 +7°C° 0 mm 1 mps 764 mmHg 77%
    04:00 +7°C° 0 mm 1 mps 764 mmHg 77%
    05:00 +8°C° 0 mm 1 mps 763 mmHg 72%
    06:00 +9°C° 0 mm 1 mps 763 mmHg 67%
    07:00 +10°C° 0 mm 1 mps 763 mmHg 63%
    08:00 +12°C° 0 mm 2 mps 763 mmHg 58%
    09:00 +13°C° 0 mm 2 mps 762 mmHg 53%
    10:00 +14°C° 0 mm 2 mps 762 mmHg 48%
    11:00 +15°C° 0 mm 2 mps 761 mmHg 45%
    12:00 +16°C° 0 mm 2 mps 761 mmHg 43%
    13:00 +17°C° 0 mm 2 mps 761 mmHg 41%
    14:00 +17°C° 0 mm 2 mps 760 mmHg 41%
    15:00 +17°C° 0 mm 3 mps 760 mmHg 41%
    16:00 +17°C° 0 mm 3 mps 760 mmHg 41%
    17:00 +16°C° 0 mm 2 mps 760 mmHg 47%
    18:00 +14°C° 0 mm 2 mps 760 mmHg 53%
    19:00 +12°C° 0 mm 1 mps 760 mmHg 58%
    20:00 +12°C° 0 mm 1 mps 760 mmHg 58%
    21:00 +12°C° 0 mm 1 mps 760 mmHg 59%
    22:00 +10°C° 0 mm 0 mps 760 mmHg 59%
    23:00 +10°C° 0 mm 0 mps 760 mmHg 60%

    26 April, Friday

    Time Temperature Precipitation Wind Pressure Humidity
    00:00 +10°C° 0 mm 0 mps 760 mmHg 60%
    01:00 +11°C° 0 mm 1 mps 760 mmHg 61%
    02:00 +10°C° 0 mm 1 mps 760 mmHg 66%
    03:00 +10°C° 0 mm 1 mps 761 mmHg 70%
    04:00 +10°C° 0 mm 1 mps 761 mmHg 75%
    05:00 +9°C° 0 mm 2 mps 761 mmHg 75%
    06:00 +9°C° 0 mm 3 mps 761 mmHg 75%
    07:00 +10°C° 0 mm 3 mps 762 mmHg 75%
    08:00 +11°C° 0 mm 3 mps 762 mmHg 67%
    09:00 +12°C° 0 mm 3 mps 762 mmHg 59%
    10:00 +13°C° 0 mm 3 mps 762 mmHg 52%
    11:00 +16°C° 0.1 mm 3 mps 763 mmHg 48%
    12:00 +17°C° 0.1 mm 3 mps 763 mmHg 44%
    13:00 +18°C° 0.1 mm 3 mps 763 mmHg 40%
    14:00 +17°C° 0.4 mm 3 mps 764 mmHg 48%
    15:00 +14°C° 0.4 mm 3 mps 764 mmHg 55%
    16:00 +14°C° 0.4 mm 2 mps 764 mmHg 62%
    17:00 +13°C° 0.1 mm 2 mps 765 mmHg 65%
    18:00 +12°C° 0.1 mm 2 mps 765 mmHg 68%
    19:00 +10°C° 0.1 mm 2 mps 765 mmHg 72%
    20:00 +9°C° 0 mm 2 mps 766 mmHg 74%
    21:00 +8°C° 0 mm 2 mps 766 mmHg 76%
    22:00 +7°C° 0 mm 2 mps 767 mmHg 78%
    23:00 +7°C° 0 mm 2 mps 767 mmHg 79%

    27 April, Saturday

    Time Temperature Precipitation Wind Pressure Humidity
    00:00 +6°C° 0 mm 2 mps 767 mmHg 81%
    01:00 +6°C° 0 mm 2 mps 767 mmHg 83%
    02:00 +5°C° 0.1 mm 2 mps 767 mmHg 84%
    03:00 +5°C° 0.1 mm 2 mps 767 mmHg 85%
    04:00 +5°C° 0.1 mm 2 mps 767 mmHg 87%
    05:00 +6°C° 0.1 mm 2 mps 767 mmHg 86%
    06:00 +7°C° 0.1 mm 1 mps 767 mmHg 85%
    07:00 +8°C° 0.1 mm 1 mps 767 mmHg 84%
    08:00 +9°C° 0.1 mm 1 mps 766 mmHg 78%
    09:00 +10°C° 0.1 mm 1 mps 766 mmHg 72%
    10:00 +12°C° 0.1 mm 1 mps 766 mmHg 66%
    11:00 +12°C° 0.1 mm 1 mps 765 mmHg 61%
    12:00 +13°C° 0.1 mm 1 mps 765 mmHg 57%
    13:00 +14°C° 0.1 mm 2 mps 764 mmHg 53%
    14:00 +13°C° 0.1 mm 2 mps 764 mmHg 53%
    15:00 +12°C° 0.1 mm 3 mps 764 mmHg 54%
    16:00 +11°C° 0.1 mm 3 mps 763 mmHg 54%
    17:00 +11°C° 0 mm 3 mps 763 mmHg 53%
    18:00 +10°C° 0 mm 3 mps 763 mmHg 53%
    19:00 +9°C° 0 mm 3 mps 763 mmHg 52%
    20:00 +8°C° 0 mm 2 mps 763 mmHg 54%
    21:00 +8°C° 0 mm 2 mps 763 mmHg 57%
    22:00 +7°C° 0 mm 2 mps 763 mmHg 60%
    23:00 +8°C° 0 mm 1 mps 763 mmHg 63%
    Show more